SKYNET 4C

Last updated on Wed Jul 09 2025 00:02:42 GMT+0000 (Coordinated Universal Time)

1 20776U 90079A 25189.06993892 .00000135 00000+0 00000+0 0 9995 2 20776 13.4492 352.1532 0003107 114.1593 238.5493 1.00275761127433
UTC large
Height (km)
Speed (km/s)
/
Latitude / Longitude
Inclination (degrees)
Orbital Period (minutes)
Azimuth
Elevation
Range (km)
Doppler Factor

Next 0 passes for location: London (51.5072 / 0.1276)

Sorry there are no passes over London.